{"data":{"norad_id":58796,"intl_designator":"2024-012K","name":"STARLINK-31195","alt_names":[],"object_type":"PAYLOAD","status":"ACTIVE","operator":null,"country":"US","launch_date":"2024-01-15","launch_site_code":"AFETR","launch_vehicle":null,"mission":null,"orbit_class":"UNKNOWN","rcs_meters":null,"size_class":null,"mass_kg":null,"dimensions":null,"purposes":["comms"],"wikipedia_slug":null,"has_3d_model":false,"image_url":null,"decayed_at":null,"tle_current":{"epoch":"2026-05-24T07:02:59.184384Z","epoch_age_seconds":142972,"freshness":"FRESH","line1":"1 58796U 24012K   26144.29374056  .00000180  00000+0  16055-4 0  9996","line2":"2 58796  43.0008  98.7041 0000988 266.7453  93.3285 15.27576247132797","mean_motion":15.27576247,"eccentricity":9.88e-5,"inclination_deg":43.0008,"raan_deg":98.7041,"arg_perigee_deg":266.7453,"mean_anomaly_deg":93.3285,"bstar":1.6055e-5,"rev_number":13279,"period_min":94.266980311327,"perigee_km":482.38244759821,"apogee_km":483.73822019138,"semimajor_km":6861.1973338948,"source":"CELESTRAK","updated_at":"2026-05-25T13:38:18.750015Z"}}}